JBU425 KRDU-KFLL

Flight info

Callsign JBU425
Flight time 1h 31m
Altitude 38000
Route ROZBO5 ROZBO GARIC JRDAN Y291 MAJIK CUUDA3
Aircraft A320/M-SDE3FGHIRWY/LB1

Departure

Time 2026-05-06 02:15
Airport Raleigh-Durham International Airport (KRDU)

Arrival

Time 2026-05-06 03:47
Airport Fort Lauderdale Hollywood International Airport (KFLL)
Time Latitude Longitude Altitude Speed Heading
2026-05-06 01:37 35.87505 -78.79588 392 ft 0 kts 316°
2026-05-06 02:00 35.87494 -78.79573 392 ft 4 kts 304°
2026-05-06 02:01 35.87485 -78.79545 392 ft 4 kts 262°
2026-05-06 02:01 35.87495 -78.79516 392 ft 3 kts 226°
2026-05-06 02:01 35.87498 -78.79513 392 ft 0 kts 225°
2026-05-06 02:05 35.87473 -78.79544 392 ft 8 kts 225°
2026-05-06 02:06 35.87427 -78.79601 392 ft 11 kts 225°
2026-05-06 02:06 35.87430 -78.79685 392 ft 12 kts 313°
2026-05-06 02:06 35.87495 -78.79763 391 ft 14 kts 316°
2026-05-06 02:06 35.87562 -78.79831 391 ft 11 kts 341°
2026-05-06 02:07 35.87626 -78.79783 391 ft 12 kts 46°
2026-05-06 02:07 35.87688 -78.79706 391 ft 13 kts 44°
2026-05-06 02:07 35.87757 -78.79621 392 ft 15 kts 45°
2026-05-06 02:07 35.87833 -78.79527 392 ft 16 kts 45°
2026-05-06 02:08 35.87916 -78.79424 392 ft 18 kts 45°
2026-05-06 02:08 35.88007 -78.79312 392 ft 20 kts 44°
2026-05-06 02:08 35.88110 -78.79185 392 ft 22 kts 45°
2026-05-06 02:08 35.88224 -78.79042 391 ft 25 kts 43°
2026-05-06 02:09 35.88314 -78.78933 391 ft 0 kts 45°
2026-05-06 02:10 35.88325 -78.78920 391 ft 6 kts 46°
2026-05-06 02:10 35.88361 -78.78874 391 ft 8 kts 45°
2026-05-06 02:11 35.88406 -78.78819 391 ft 10 kts 45°
2026-05-06 02:11 35.88460 -78.78752 391 ft 12 kts 45°
2026-05-06 02:11 35.88520 -78.78677 392 ft 13 kts 45°
2026-05-06 02:11 35.88588 -78.78592 392 ft 15 kts 44°
2026-05-06 02:12 35.88667 -78.78495 392 ft 17 kts 45°
2026-05-06 02:12 35.88758 -78.78382 392 ft 20 kts 45°
2026-05-06 02:12 35.88865 -78.78250 392 ft 23 kts 45°
2026-05-06 02:12 35.88989 -78.78098 391 ft 27 kts 45°
2026-05-06 02:13 35.89121 -78.77934 392 ft 23 kts 44°
2026-05-06 02:13 35.89237 -78.77795 392 ft 22 kts 45°
2026-05-06 02:13 35.89312 -78.77744 392 ft 13 kts 341°
2026-05-06 02:13 35.89361 -78.77827 393 ft 9 kts 263°
2026-05-06 02:14 35.89332 -78.77869 392 ft 0 kts 224°
2026-05-06 02:14 35.89324 -78.77878 392 ft 10 kts 225°
2026-05-06 02:14 35.89092 -78.78163 390 ft 82 kts 225°
2026-05-06 02:14 35.88550 -78.78830 392 ft 136 kts 225°
2026-05-06 02:15 35.87794 -78.79674 748 ft 147 kts 219°
2026-05-06 02:15 35.87029 -78.80514 1348 ft 146 kts 223°
2026-05-06 02:15 35.86323 -78.81384 2023 ft 145 kts 220°
2026-05-06 02:15 35.85582 -78.82324 2353 ft 163 kts 220°
2026-05-06 02:16 35.84650 -78.83270 2624 ft 185 kts 211°
2026-05-06 02:16 35.83441 -78.84059 2908 ft 209 kts 201°
2026-05-06 02:16 35.81955 -78.84560 3359 ft 233 kts 189°
2026-05-06 02:16 35.80289 -78.84608 4105 ft 246 kts 177°
2026-05-06 02:17 35.78582 -78.84121 4934 ft 259 kts 163°
2026-05-06 02:17 35.76962 -78.83055 5792 ft 270 kts 148°
2026-05-06 02:17 35.75590 -78.81437 6709 ft 278 kts 132°
2026-05-06 02:17 35.74367 -78.79630 7529 ft 279 kts 140°
2026-05-06 02:18 35.72842 -78.78156 8325 ft 280 kts 153°
2026-05-06 02:18 35.71062 -78.77186 9118 ft 280 kts 167°
2026-05-06 02:18 35.69168 -78.76550 9913 ft 285 kts 169°
2026-05-06 02:18 35.67196 -78.75900 10340 ft 304 kts 168°
2026-05-06 02:19 35.65078 -78.75207 10573 ft 327 kts 168°
2026-05-06 02:19 35.62833 -78.74469 11044 ft 339 kts 168°
2026-05-06 02:19 35.60540 -78.73705 11701 ft 344 kts 168°
2026-05-06 02:19 35.58208 -78.72923 12352 ft 350 kts 168°
2026-05-06 02:20 35.53474 -78.71335 13664 ft 360 kts 168°
2026-05-06 02:20 35.51024 -78.70615 14265 ft 363 kts 175°
2026-05-06 02:20 35.48510 -78.70247 14868 ft 366 kts 177°
2026-05-06 02:21 35.45970 -78.69887 15464 ft 369 kts 177°
2026-05-06 02:21 35.43404 -78.69520 16058 ft 373 kts 177°
2026-05-06 02:21 35.40810 -78.69147 16636 ft 377 kts 177°
2026-05-06 02:21 35.38222 -78.68777 17210 ft 382 kts 177°
2026-05-06 02:22 35.35575 -78.68399 17829 ft 384 kts 177°
2026-05-06 02:22 35.32907 -78.68016 18466 ft 387 kts 177°
2026-05-06 02:22 35.30220 -78.67629 19010 ft 391 kts 177°
2026-05-06 02:22 35.27507 -78.67239 19549 ft 395 kts 177°
2026-05-06 02:23 35.24768 -78.66845 20073 ft 399 kts 177°
2026-05-06 02:23 35.21993 -78.66447 20577 ft 404 kts 178°
2026-05-06 02:23 35.19189 -78.66047 21079 ft 408 kts 178°
2026-05-06 02:23 35.16392 -78.65650 21572 ft 412 kts 178°
2026-05-06 02:24 35.13530 -78.65245 22073 ft 416 kts 178°
2026-05-06 02:24 35.10640 -78.64837 22567 ft 420 kts 178°
2026-05-06 02:24 35.07719 -78.64423 23055 ft 425 kts 178°
2026-05-06 02:24 35.04769 -78.64002 23533 ft 429 kts 178°
2026-05-06 02:25 35.01793 -78.63578 23942 ft 433 kts 178°
2026-05-06 02:25 34.98790 -78.63148 24353 ft 436 kts 177°
2026-05-06 02:25 34.95792 -78.62391 24729 ft 445 kts 167°
2026-05-06 02:25 34.92874 -78.61033 25109 ft 454 kts 158°
2026-05-06 02:26 34.90075 -78.59329 25480 ft 457 kts 157°
2026-05-06 02:26 34.87220 -78.57592 25852 ft 461 kts 157°
2026-05-06 02:26 34.84343 -78.55849 26214 ft 464 kts 157°
2026-05-06 02:26 34.81444 -78.54093 26579 ft 467 kts 157°
2026-05-06 02:27 34.78525 -78.52330 26937 ft 470 kts 158°
2026-05-06 02:27 34.75590 -78.50563 27291 ft 473 kts 158°
2026-05-06 02:27 34.72633 -78.48786 27641 ft 476 kts 158°
2026-05-06 02:27 34.69656 -78.47001 27973 ft 479 kts 158°
2026-05-06 02:28 34.66661 -78.45205 28299 ft 482 kts 158°
2026-05-06 02:28 34.63683 -78.43415 28637 ft 485 kts 158°
2026-05-06 02:28 34.60648 -78.41590 28966 ft 488 kts 158°
2026-05-06 02:28 34.57592 -78.39756 29298 ft 491 kts 158°
2026-05-06 02:29 34.54520 -78.37913 29640 ft 494 kts 158°
2026-05-06 02:29 34.51427 -78.36058 29952 ft 497 kts 158°
2026-05-06 02:29 34.48317 -78.34193 30257 ft 500 kts 158°
2026-05-06 02:29 34.45190 -78.32319 30494 ft 503 kts 158°
2026-05-06 02:30 34.42040 -78.30433 30718 ft 507 kts 158°
2026-05-06 02:30 34.38869 -78.28541 30954 ft 510 kts 158°
2026-05-06 02:30 34.35717 -78.26663 31187 ft 513 kts 158°
2026-05-06 02:30 34.32504 -78.24750 31418 ft 516 kts 158°
2026-05-06 02:31 34.29275 -78.22828 31703 ft 518 kts 157°
2026-05-06 02:31 34.26041 -78.20901 32020 ft 519 kts 157°
2026-05-06 02:31 34.22797 -78.18969 32332 ft 520 kts 157°
2026-05-06 02:31 34.19545 -78.17033 32639 ft 522 kts 157°
2026-05-06 02:32 34.16287 -78.15094 32950 ft 523 kts 157°
2026-05-06 02:32 34.13019 -78.13153 33235 ft 524 kts 157°
2026-05-06 02:32 34.09739 -78.11211 33550 ft 526 kts 157°
2026-05-06 02:32 34.06451 -78.09267 33866 ft 527 kts 157°
2026-05-06 02:33 34.03196 -78.07344 34173 ft 529 kts 157°
2026-05-06 02:33 34.00964 -78.06026 34368 ft 529 kts 157°
2026-05-06 02:33 33.93286 -78.01494 35116 ft 528 kts 157°
2026-05-06 02:34 33.89933 -77.99723 35431 ft 524 kts 165°
2026-05-06 02:34 33.86462 -77.98507 35719 ft 517 kts 174°
2026-05-06 02:34 33.82934 -77.97879 36017 ft 509 kts 182°
2026-05-06 02:34 33.79416 -77.97671 36322 ft 506 kts 184°
2026-05-06 02:35 33.75947 -77.97471 36611 ft 505 kts 184°
2026-05-06 02:35 33.72437 -77.97254 36899 ft 505 kts 184°
2026-05-06 02:35 33.68935 -77.97031 37187 ft 504 kts 184°
2026-05-06 02:35 33.65434 -77.96810 37464 ft 503 kts 184°
2026-05-06 02:36 33.61938 -77.96592 37714 ft 503 kts 184°
2026-05-06 02:36 33.58449 -77.96381 37974 ft 502 kts 184°
2026-05-06 02:36 33.54957 -77.96174 38105 ft 503 kts 184°
2026-05-06 02:37 33.47977 -77.95762 38125 ft 502 kts 184°
2026-05-06 02:37 33.41047 -77.95342 38128 ft 502 kts 184°
2026-05-06 02:38 33.34071 -77.94924 38126 ft 502 kts 184°
2026-05-06 02:38 33.27091 -77.94506 38128 ft 502 kts 184°
2026-05-06 02:39 33.20104 -77.94092 38133 ft 503 kts 184°
2026-05-06 02:39 33.13166 -77.93679 38137 ft 503 kts 184°
2026-05-06 02:40 33.06191 -77.93418 38115 ft 497 kts 191°
2026-05-06 02:40 32.99530 -77.94834 38125 ft 480 kts 205°
2026-05-06 02:41 32.93114 -77.97037 38113 ft 480 kts 205°
2026-05-06 02:41 32.86695 -77.99230 38130 ft 480 kts 205°
2026-05-06 02:42 32.80321 -78.01405 38142 ft 480 kts 205°
2026-05-06 02:42 32.73903 -78.03597 38144 ft 480 kts 205°
2026-05-06 02:43 32.67483 -78.05780 38145 ft 480 kts 205°
2026-05-06 02:43 32.61068 -78.07961 38146 ft 480 kts 205°
2026-05-06 02:44 32.54692 -78.10122 38127 ft 480 kts 205°
2026-05-06 02:44 32.48277 -78.12299 38131 ft 480 kts 205°
2026-05-06 02:45 32.41857 -78.14462 38138 ft 480 kts 205°
2026-05-06 02:45 32.35437 -78.16623 38140 ft 480 kts 205°
2026-05-06 02:46 32.29367 -78.18668 38126 ft 481 kts 205°
2026-05-06 02:46 32.22967 -78.20835 38149 ft 482 kts 205°
2026-05-06 02:47 32.16525 -78.23005 38151 ft 481 kts 205°
2026-05-06 02:47 32.10089 -78.25163 38144 ft 481 kts 205°
2026-05-06 02:48 32.03657 -78.27310 38122 ft 480 kts 205°
2026-05-06 02:48 31.97234 -78.29460 38135 ft 480 kts 205°
2026-05-06 02:49 31.90856 -78.31593 38138 ft 480 kts 205°
2026-05-06 02:49 31.84432 -78.33735 38141 ft 480 kts 205°
2026-05-06 02:50 31.78012 -78.35883 38124 ft 480 kts 205°
2026-05-06 02:50 31.71633 -78.38009 38132 ft 480 kts 205°
2026-05-06 02:51 31.65210 -78.40140 38136 ft 480 kts 205°
2026-05-06 02:51 31.58782 -78.42267 38140 ft 480 kts 205°
2026-05-06 02:52 31.52354 -78.44388 38101 ft 480 kts 205°
2026-05-06 02:52 31.45961 -78.46494 38116 ft 481 kts 205°
2026-05-06 02:53 31.39512 -78.48590 38121 ft 481 kts 205°
2026-05-06 02:53 31.33051 -78.50667 38132 ft 482 kts 205°
2026-05-06 02:54 31.26587 -78.52746 38105 ft 482 kts 205°
2026-05-06 02:54 31.20161 -78.54817 38113 ft 482 kts 205°
2026-05-06 02:55 31.13693 -78.56909 38118 ft 483 kts 205°
2026-05-06 02:55 31.07219 -78.59006 38124 ft 483 kts 205°
2026-05-06 02:56 31.00737 -78.61090 38106 ft 484 kts 205°
2026-05-06 02:56 30.94243 -78.63169 38110 ft 484 kts 205°
2026-05-06 02:57 30.87791 -78.65245 38114 ft 484 kts 205°
2026-05-06 02:57 30.81289 -78.67331 38120 ft 485 kts 205°
2026-05-06 02:58 30.74780 -78.69412 38066 ft 485 kts 206°
2026-05-06 02:58 30.68250 -78.71498 38118 ft 488 kts 206°
2026-05-06 02:59 30.61743 -78.73570 38124 ft 488 kts 206°
2026-05-06 02:59 30.55190 -78.75662 38129 ft 488 kts 206°
2026-05-06 03:00 30.48642 -78.77755 38132 ft 488 kts 206°
2026-05-06 03:00 30.42091 -78.79839 38112 ft 488 kts 206°
2026-05-06 03:01 30.35573 -78.81897 38119 ft 489 kts 206°
2026-05-06 03:01 30.29007 -78.83965 38128 ft 489 kts 206°
2026-05-06 03:02 30.22448 -78.86038 38127 ft 489 kts 206°
2026-05-06 03:02 30.15890 -78.88122 38130 ft 489 kts 206°
2026-05-06 03:03 30.09376 -78.90184 38132 ft 489 kts 206°
2026-05-06 03:03 30.02809 -78.92254 38136 ft 489 kts 206°
2026-05-06 03:04 29.96248 -78.94318 38135 ft 489 kts 206°
2026-05-06 03:04 29.89678 -78.96378 38101 ft 489 kts 206°
2026-05-06 03:05 29.83110 -78.98439 38110 ft 490 kts 206°
2026-05-06 03:05 29.76403 -79.00012 38111 ft 499 kts 199°
2026-05-06 03:06 29.69535 -79.01278 38118 ft 500 kts 199°
2026-05-06 03:06 29.62661 -79.02532 38100 ft 500 kts 199°
2026-05-06 03:07 29.55787 -79.03794 38105 ft 500 kts 199°
2026-05-06 03:07 29.48953 -79.05059 38113 ft 501 kts 199°
2026-05-06 03:08 29.42072 -79.06325 38099 ft 501 kts 199°
2026-05-06 03:08 29.35178 -79.07585 38085 ft 502 kts 199°
2026-05-06 03:09 29.28278 -79.08858 38095 ft 502 kts 199°
2026-05-06 03:09 29.21375 -79.10126 38106 ft 503 kts 199°
2026-05-06 03:10 29.14455 -79.11386 38112 ft 503 kts 199°
2026-05-06 03:10 29.07591 -79.12639 38092 ft 503 kts 199°
2026-05-06 03:11 29.00677 -79.13905 38106 ft 503 kts 199°
2026-05-06 03:11 28.93760 -79.15162 38116 ft 503 kts 199°
2026-05-06 03:12 28.86843 -79.16427 38124 ft 503 kts 199°
2026-05-06 03:12 28.79970 -79.17669 38100 ft 503 kts 199°
2026-05-06 03:13 28.73054 -79.18920 38109 ft 503 kts 199°
2026-05-06 03:13 28.66133 -79.20170 38117 ft 503 kts 199°
2026-05-06 03:14 28.59220 -79.21432 38124 ft 503 kts 199°
2026-05-06 03:14 28.52301 -79.22678 38101 ft 503 kts 198°
2026-05-06 03:15 28.45426 -79.23915 38110 ft 503 kts 198°
2026-05-06 03:15 28.38508 -79.25163 38117 ft 503 kts 198°
2026-05-06 03:16 28.31636 -79.26537 38125 ft 495 kts 205°
2026-05-06 03:16 28.25040 -79.28670 37888 ft 493 kts 206°
2026-05-06 03:16 28.21746 -79.29744 37593 ft 493 kts 206°
2026-05-06 03:17 28.18446 -79.30818 37333 ft 494 kts 206°
2026-05-06 03:17 28.15146 -79.31889 37076 ft 494 kts 206°
2026-05-06 03:17 28.11882 -79.32946 36830 ft 495 kts 205°
2026-05-06 03:17 28.08565 -79.34016 36576 ft 496 kts 205°
2026-05-06 03:18 28.05245 -79.35087 36327 ft 496 kts 205°
2026-05-06 03:18 28.01922 -79.36162 36084 ft 497 kts 205°
2026-05-06 03:18 27.98595 -79.37239 35841 ft 498 kts 205°
2026-05-06 03:18 27.95262 -79.38317 35579 ft 499 kts 205°
2026-05-06 03:19 27.91922 -79.39394 35341 ft 499 kts 205°
2026-05-06 03:19 27.88583 -79.40468 35102 ft 500 kts 204°
2026-05-06 03:19 27.85238 -79.41546 34874 ft 500 kts 204°
2026-05-06 03:19 27.81888 -79.42626 34649 ft 501 kts 204°
2026-05-06 03:20 27.75248 -79.44769 34171 ft 499 kts 204°
2026-05-06 03:20 27.71908 -79.45846 33923 ft 499 kts 204°
2026-05-06 03:20 27.68564 -79.46920 33326 ft 501 kts 204°
2026-05-06 03:21 27.65189 -79.48004 32254 ft 507 kts 203°
2026-05-06 03:21 27.61785 -79.49095 31337 ft 509 kts 202°
2026-05-06 03:21 27.58398 -79.50176 30818 ft 503 kts 202°
2026-05-06 03:21 27.55042 -79.51247 30160 ft 500 kts 202°
2026-05-06 03:22 27.51704 -79.52313 29474 ft 496 kts 202°
2026-05-06 03:22 27.48449 -79.53353 28853 ft 491 kts 202°
2026-05-06 03:22 27.45181 -79.54397 28253 ft 485 kts 202°
2026-05-06 03:22 27.41981 -79.55418 28022 ft 471 kts 202°
2026-05-06 03:23 27.38850 -79.56413 27485 ft 462 kts 202°
2026-05-06 03:23 27.35785 -79.57383 26573 ft 454 kts 202°
2026-05-06 03:23 27.32769 -79.58333 25860 ft 446 kts 201°
2026-05-06 03:23 27.29804 -79.59265 25212 ft 440 kts 201°
2026-05-06 03:24 27.26879 -79.60186 24658 ft 433 kts 201°
2026-05-06 03:24 27.24041 -79.61079 24139 ft 426 kts 201°
2026-05-06 03:24 27.21208 -79.61971 23606 ft 420 kts 201°
2026-05-06 03:24 27.18417 -79.62849 23062 ft 413 kts 201°
2026-05-06 03:25 27.15680 -79.63716 22577 ft 404 kts 201°
2026-05-06 03:25 27.13002 -79.64571 22108 ft 396 kts 201°
2026-05-06 03:25 27.10381 -79.65410 21646 ft 388 kts 201°
2026-05-06 03:25 27.07813 -79.66233 21174 ft 380 kts 201°
2026-05-06 03:26 27.05297 -79.67041 20725 ft 374 kts 201°
2026-05-06 03:26 27.02805 -79.67846 20263 ft 372 kts 201°
2026-05-06 03:26 27.00360 -79.68638 19799 ft 369 kts 200°
2026-05-06 03:26 26.97898 -79.69431 19323 ft 367 kts 200°
2026-05-06 03:27 26.95441 -79.70220 18836 ft 368 kts 200°
2026-05-06 03:27 26.92977 -79.71010 18335 ft 369 kts 199°
2026-05-06 03:27 26.90504 -79.71801 17787 ft 369 kts 199°
2026-05-06 03:27 26.88036 -79.72585 17275 ft 368 kts 199°
2026-05-06 03:28 26.85573 -79.73367 16752 ft 367 kts 199°
2026-05-06 03:28 26.83129 -79.74142 16350 ft 363 kts 199°
2026-05-06 03:28 26.80719 -79.74906 16067 ft 357 kts 199°
2026-05-06 03:28 26.78335 -79.75661 15813 ft 355 kts 199°
2026-05-06 03:29 26.75999 -79.76399 15419 ft 352 kts 199°
2026-05-06 03:29 26.73647 -79.77143 14978 ft 351 kts 199°
2026-05-06 03:29 26.71307 -79.77881 14541 ft 349 kts 198°
2026-05-06 03:29 26.68984 -79.78645 14105 ft 347 kts 200°
2026-05-06 03:30 26.66719 -79.79506 13720 ft 342 kts 202°
2026-05-06 03:30 26.64490 -79.80424 13296 ft 338 kts 203°
2026-05-06 03:30 26.62324 -79.81340 13014 ft 328 kts 204°
2026-05-06 03:30 26.60914 -79.81939 12632 ft 327 kts 204°
2026-05-06 03:31 26.58086 -79.83130 11967 ft 324 kts 203°
2026-05-06 03:31 26.56004 -79.83993 11596 ft 322 kts 203°
2026-05-06 03:31 26.53922 -79.84880 11317 ft 316 kts 205°
2026-05-06 03:31 26.51916 -79.85799 11104 ft 309 kts 206°
2026-05-06 03:32 26.49948 -79.86739 10773 ft 307 kts 207°
2026-05-06 03:32 26.47996 -79.87682 10454 ft 304 kts 207°
2026-05-06 03:32 26.46057 -79.88614 10120 ft 303 kts 207°
2026-05-06 03:32 26.44122 -79.89535 9769 ft 301 kts 206°
2026-05-06 03:33 26.42847 -79.90140 9536 ft 300 kts 206°
2026-05-06 03:33 26.40316 -79.91335 8987 ft 295 kts 206°
2026-05-06 03:33 26.38435 -79.92229 8334 ft 292 kts 208°
2026-05-06 03:33 26.36680 -79.93318 7764 ft 286 kts 212°
2026-05-06 03:34 26.34984 -79.94405 7645 ft 282 kts 212°
2026-05-06 03:34 26.33284 -79.95497 7510 ft 282 kts 213°
2026-05-06 03:34 26.31587 -79.96587 7323 ft 281 kts 212°
2026-05-06 03:34 26.30466 -79.97308 7201 ft 281 kts 213°
2026-05-06 03:35 26.28779 -79.98392 7019 ft 280 kts 213°
2026-05-06 03:35 26.26548 -79.99824 6782 ft 279 kts 212°
2026-05-06 03:35 26.24875 -80.00901 6600 ft 277 kts 213°
2026-05-06 03:35 26.23211 -80.01974 6416 ft 275 kts 212°
2026-05-06 03:36 26.22090 -80.02692 6270 ft 275 kts 212°
2026-05-06 03:36 26.20457 -80.03740 6120 ft 273 kts 211°
2026-05-06 03:36 26.18951 -80.04993 6040 ft 270 kts 227°
2026-05-06 03:36 26.17803 -80.06631 6043 ft 269 kts 241°
2026-05-06 03:37 26.17068 -80.08541 6043 ft 269 kts 252°
2026-05-06 03:37 26.16285 -80.11159 6038 ft 270 kts 252°
2026-05-06 03:37 26.15688 -80.13131 6036 ft 269 kts 252°
2026-05-06 03:37 26.15148 -80.15108 5923 ft 266 kts 259°
2026-05-06 03:38 26.15011 -80.16463 5636 ft 267 kts 269°
2026-05-06 03:38 26.15005 -80.18539 5241 ft 268 kts 269°
2026-05-06 03:38 26.14960 -80.20609 4912 ft 267 kts 269°
2026-05-06 03:38 26.14909 -80.22671 4561 ft 264 kts 268°
2026-05-06 03:39 26.14859 -80.24661 4263 ft 251 kts 269°
2026-05-06 03:39 26.14813 -80.26547 4066 ft 235 kts 269°
2026-05-06 03:39 26.14769 -80.28320 4031 ft 226 kts 268°
2026-05-06 03:39 26.14728 -80.30069 4032 ft 226 kts 269°
2026-05-06 03:40 26.14686 -80.31812 4031 ft 225 kts 269°
2026-05-06 03:40 26.14645 -80.33556 4032 ft 225 kts 269°
2026-05-06 03:40 26.14603 -80.35272 4032 ft 225 kts 268°
2026-05-06 03:40 26.14297 -80.36963 4032 ft 225 kts 242°
2026-05-06 03:41 26.13239 -80.38228 3889 ft 227 kts 210°
2026-05-06 03:41 26.11738 -80.38722 3572 ft 227 kts 186°
2026-05-06 03:41 26.10165 -80.38870 3287 ft 226 kts 183°
2026-05-06 03:41 26.08606 -80.38943 3086 ft 223 kts 172°
2026-05-06 03:42 26.07200 -80.38325 3026 ft 219 kts 138°
2026-05-06 03:42 26.06375 -80.36936 3030 ft 218 kts 104°
2026-05-06 03:42 26.06429 -80.35288 3031 ft 217 kts 67°
2026-05-06 03:42 26.07160 -80.33834 2882 ft 219 kts 62°
2026-05-06 03:43 26.07645 -80.32249 2588 ft 217 kts 82°
2026-05-06 03:43 26.07754 -80.30594 2383 ft 213 kts 89°
2026-05-06 03:43 26.07758 -80.29017 2142 ft 195 kts 90°
2026-05-06 03:43 26.07751 -80.27588 1938 ft 174 kts 90°
2026-05-06 03:44 26.07744 -80.26305 1708 ft 157 kts 90°
2026-05-06 03:44 26.07739 -80.25174 1515 ft 139 kts 90°
2026-05-06 03:44 26.07733 -80.24121 1335 ft 134 kts 90°
2026-05-06 03:44 26.07728 -80.23100 1163 ft 131 kts 90°
2026-05-06 03:45 26.07723 -80.22099 997 ft 131 kts 90°
2026-05-06 03:45 26.07721 -80.21090 824 ft 130 kts 90°
2026-05-06 03:45 26.07733 -80.20081 667 ft 131 kts 89°
2026-05-06 03:45 26.07712 -80.19064 533 ft 131 kts 90°
2026-05-06 03:46 26.07692 -80.18050 354 ft 131 kts 88°
2026-05-06 03:46 26.07699 -80.17040 163 ft 131 kts 88°
2026-05-06 03:46 26.07687 -80.16033 28 ft 124 kts 88°
2026-05-06 03:46 26.07687 -80.15294 16 ft 55 kts 90°
2026-05-06 03:47 26.07685 -80.15069 16 ft 24 kts 95°
2026-05-06 03:47 26.07620 -80.14918 17 ft 8 kts 121°
2026-05-06 03:47 26.07604 -80.14888 17 ft 0 kts 121°
2026-05-06 03:48 26.07600 -80.14880 17 ft 3 kts 120°
2026-05-06 03:48 26.07583 -80.14847 17 ft 7 kts 120°
2026-05-06 03:48 26.07545 -80.14796 18 ft 10 kts 134°
2026-05-06 03:48 26.07488 -80.14773 17 ft 10 kts 203°
2026-05-06 03:49 26.07429 -80.14833 16 ft 13 kts 225°
2026-05-06 03:49 26.07344 -80.14854 16 ft 10 kts 180°
2026-05-06 03:49 26.07265 -80.14854 16 ft 13 kts 180°
2026-05-06 03:49 26.07181 -80.14855 16 ft 10 kts 180°
2026-05-06 03:50 26.07103 -80.14855 16 ft 11 kts 179°
2026-05-06 03:50 26.07037 -80.14807 16 ft 12 kts 136°
2026-05-06 03:50 26.06972 -80.14739 16 ft 13 kts 139°
2026-05-06 03:50 26.06899 -80.14669 16 ft 15 kts 144°
2026-05-06 03:51 26.06833 -80.14604 16 ft 9 kts 133°
2026-05-06 03:51 26.06819 -80.14537 16 ft 10 kts 92°
2026-05-06 03:51 26.06818 -80.14457 16 ft 6 kts 90°
2026-05-06 03:51 26.06845 -80.14432 16 ft 6 kts
2026-05-06 03:52 26.06878 -80.14432 16 ft 3 kts
2026-05-06 03:52 26.06880 -80.14432 16 ft 0 kts